Location: Hamlin Beach State Park
(43.3614°N, 77.9586°W)
Time: 22:58:19
(UTC-05:00)

ISS - Visible Passes

Search period start: 17 January 2018 00:00
Search period end: 27 January 2018 00:00
Orbit: 402 x 407 km, 51.6° (Epoch: 18 January)

Date Brightness Start Highest point End Pass type
(mag) Time Alt. Az. Time Alt. Az. Time Alt. Az.
17 Jan -1.3 05:30:28 15° S 05:30:28 15° S 05:31:14 10° SSE visible
24 Jan -2.0 19:12:26 10° SSW 19:14:04 24° S 19:14:04 24° S visible
25 Jan -2.2 18:20:48 10° S 18:23:17 20° SE 18:24:14 18° ESE visible
25 Jan -0.6 19:56:20 10° WSW 19:56:54 14° WSW 19:56:54 14° WSW visible
26 Jan -3.9 19:03:53 10° SW 19:06:58 79° SW 19:06:58 79° SW visible
